Location: Unspecified
(44.4377°N, 88.0525°W)
Time: 08:30:47
(UTC-05:00)

Okean 3 - Visible Passes

Search period start: 27 July 2016 00:00
Search period end: 06 August 2016 00:00
Orbit: 579 x 602 km, 82.5° (Epoch: 26 July)

Date Brightness Start Highest point End Pass type
(mag) Time Alt. Az. Time Alt. Az. Time Alt. Az.
27 Jul 3.5 21:24:16 10° N 21:28:32 63° E 21:32:25 12° SSE visible
27 Jul 6.2 23:03:40 10° WNW 23:05:12 12° W 23:06:44 10° WSW visible
28 Jul 3.5 21:32:43 10° N 21:37:02 86° W 21:41:10 11° S visible
29 Jul 4.1 21:41:17 10° NNW 21:45:29 56° W 21:49:38 10° S visible
30 Jul 4.9 21:49:57 10° NNW 21:53:53 37° W 21:57:48 10° SSW visible
31 Jul 5.5 21:58:45 10° NNW 22:02:16 25° W 22:05:44 10° SW visible
01 Aug 6.1 22:07:48 10° NW 22:10:36 17° W 22:13:23 10° SW visible
02 Aug 6.4 22:17:23 10° WNW 22:18:53 12° W 22:20:23 10° WSW visible
03 Aug 3.5 20:46:26 10° N 20:50:42 86° W 20:54:56 10° S visible
04 Aug 4.2 20:54:58 10° NNW 20:59:10 56° W 21:03:17 10° S visible
05 Aug 5.0 21:03:38 10° NNW 21:07:34 37° W 21:11:27 10° SSW visible
